| time (UTC) | temp F | wind direction | speed knots | gust knots | rain 1hr in | rain 24hr in | rain mn in | humidity % | barometer mb |
| 20260503053540 | 57 | 168 | 0.0 | 0.0 | 0.00 | 0.38 | 0.08 | 99 | 1011.9 |
| 20260503053033 | 58 | 165 | 0.0 | 0.0 | 0.00 | 0.38 | 0.08 | 99 | 1011.9 |
| 20260503052532 | 58 | 168 | 0.0 | 0.0 | 0.00 | 0.38 | 0.08 | 99 | 1011.9 |
| 20260503052028 | 57 | 168 | 0.0 | 0.0 | 0.00 | 0.38 | 0.08 | 99 | 1011.9 |
| 20260503051534 | 57 | 168 | 0.0 | 0.0 | 0.00 | 0.38 | 0.08 | 99 | 1011.9 |
| 20260503051047 | 57 | 168 | 0.0 | 0.0 | 0.00 | 0.38 | 0.08 | 99 | 1012.0 |
| 20260503050544 | 57 | 168 | 0.0 | 0.0 | 0.00 | 0.38 | 0.08 | 99 | 1012.0 |
| 20260503050025 | 57 | 168 | 0.0 | 0.0 | 0.00 | 0.38 | 0.08 | 99 | 1012.1 |
| 20260503045534 | 57 | 168 | 0.0 | 0.0 | 0.00 | 0.38 | 0.08 | 99 | 1012.1 |
| 20260503045032 | 57 | 168 | 0.0 | 0.0 | 0.00 | 0.38 | 0.08 | 99 | 1012.1 |
| 20260503044532 | 57 | 168 | 0.0 | 0.0 | 0.00 | 0.38 | 0.08 | 99 | 1012.1 |
| 20260503044031 | 57 | 168 | 0.0 | 1.7 | 0.00 | 0.38 | 0.08 | 99 | 1012.1 |
| 20260503043532 | 57 | 164 | 0.0 | 0.0 | 0.00 | 0.38 | 0.08 | 99 | 1012.1 |
| 20260503043044 | 57 | 164 | 0.0 | 0.0 | 0.00 | 0.38 | 0.08 | 99 | 1012.1 |
| 20260503042531 | 57 | 166 | 0.0 | 1.7 | 0.00 | 0.38 | 0.08 | 99 | 1012.1 |
| 20260503042031 | 57 | 168 | 0.0 | 0.0 | 0.00 | 0.38 | 0.08 | 99 | 1012.1 |
| 20260503041534 | 57 | 168 | 0.0 | 0.0 | 0.00 | 0.38 | 0.08 | 99 | 1012.1 |
| 20260503041032 | 57 | 168 | 0.0 | 0.0 | 0.00 | 0.38 | 0.08 | 99 | 1012.0 |
| 20260503040544 | 57 | 165 | 0.0 | 0.0 | 0.00 | 0.38 | 0.08 | 99 | 1011.9 |
| 20260503040032 | 57 | 165 | 0.0 | 0.0 | 0.00 | 0.38 | 0.08 | 99 | 1012.0 |
| 20260503035532 | 57 | 165 | 0.0 | 0.0 | 0.00 | 0.38 | 0.08 | 99 | 1012.0 |
| 20260503035032 | 57 | 165 | 0.0 | 0.0 | 0.00 | 0.38 | 0.08 | 99 | 1012.1 |
| 20260503034521 | 57 | 165 | 0.0 | 0.0 | 0.00 | 0.38 | 0.08 | 99 | 1012.1 |
| 20260503034028 | 57 | 165 | 0.0 | 0.0 | 0.00 | 0.38 | 0.08 | 99 | 1012.2 |
| 20260503033532 | 57 | 165 | 0.0 | 0.0 | 0.00 | 0.38 | 0.08 | 99 | 1012.2 |
| 20260503033032 | 58 | 165 | 0.0 | 0.0 | 0.00 | 0.38 | 0.08 | 99 | 1012.2 |
| 20260503032532 | 58 | 165 | 0.0 | 0.0 | 0.00 | 0.38 | 0.08 | 99 | 1012.3 |
| 20260503032044 | 58 | 165 | 0.0 | 0.0 | 0.00 | 0.38 | 0.08 | 99 | 1012.3 |
| 20260503031535 | 58 | 168 | 0.0 | 0.0 | 0.00 | 0.38 | 0.08 | 99 | 1012.3 |
| 20260503031031 | 58 | 168 | 0.0 | 0.0 | 0.00 | 0.38 | 0.08 | 98 | 1012.3 |
| 20260503030522 | 58 | 168 | 0.0 | 0.0 | 0.00 | 0.38 | 0.08 | 98 | 1012.3 |
| 20260503030032 | 58 | 168 | 0.0 | 0.0 | 0.00 | 0.38 | 0.08 | 98 | 1012.5 |
| 20260503025532 | 58 | 168 | 0.0 | 0.0 | 0.00 | 0.38 | 0.08 | 98 | 1012.6 |
| 20260503025032 | 58 | 168 | 0.0 | 0.0 | 0.00 | 0.38 | 0.08 | 98 | 1012.7 |
| 20260503024532 | 58 | 168 | 0.0 | 0.0 | 0.00 | 0.38 | 0.08 | 98 | 1012.9 |
| 20260503024032 | 58 | 168 | 0.0 | 0.0 | 0.00 | 0.38 | 0.08 | 98 | 1013.0 |
| 20260503023534 | 58 | 168 | 0.0 | 0.0 | 0.00 | 0.38 | 0.08 | 98 | 1013.1 |
| 20260503023032 | 58 | 168 | 0.0 | 0.0 | 0.00 | 0.38 | 0.08 | 98 | 1013.2 |
| 20260503022523 | 58 | 168 | 0.0 | 0.0 | 0.00 | 0.38 | 0.08 | 98 | 1013.2 |
| 20260503022032 | 58 | 168 | 0.0 | 0.0 | 0.00 | 0.38 | 0.08 | 98 | 1013.2 |
| 20260503021532 | 58 | 168 | 0.0 | 0.0 | 0.00 | 0.38 | 0.08 | 98 | 1013.1 |
| 20260503021057 | 58 | 168 | 0.0 | 0.0 | 0.00 | 0.38 | 0.08 | 98 | 1013.2 |
| 20260503020554 | 58 | 168 | 0.0 | 0.0 | 0.00 | 0.38 | 0.08 | 98 | 1013.3 |
| 20260503020032 | 58 | 163 | 0.0 | 0.0 | 0.00 | 0.38 | 0.08 | 98 | 1013.3 |
| 20260503015532 | 58 | 162 | 0.0 | 0.0 | 0.00 | 0.38 | 0.08 | 98 | 1013.4 |
| 20260503015057 | 58 | 163 | 0.0 | 0.0 | 0.00 | 0.38 | 0.08 | 98 | 1013.4 |
| 20260503014532 | 58 | 163 | 0.0 | 0.0 | 0.00 | 0.38 | 0.08 | 98 | 1013.4 |
| 20260503014033 | 58 | 163 | 0.0 | 0.0 | 0.00 | 0.38 | 0.08 | 98 | 1013.3 |
| 20260503013532 | 58 | 163 | 0.0 | 0.0 | 0.00 | 0.38 | 0.08 | 98 | 1013.3 |
| 20260503013032 | 58 | 162 | 0.0 | 0.0 | 0.00 | 0.38 | 0.08 | 98 | 1013.3 |
| 20260503012532 | 58 | 162 | 0.0 | 0.0 | 0.00 | 0.38 | 0.08 | 98 | 1013.1 |
| 20260503012036 | 58 | 162 | 0.0 | 0.0 | 0.00 | 0.38 | 0.08 | 98 | 1013.1 |
| 20260503011536 | 58 | 162 | 0.0 | 0.0 | 0.00 | 0.38 | 0.08 | 98 | 1013.1 |
| 20260503011032 | 58 | 162 | 0.0 | 0.0 | 0.00 | 0.38 | 0.08 | 98 | 1013.1 |
| 20260503010527 | 58 | 162 | 0.0 | 0.0 | 0.00 | 0.38 | 0.08 | 98 | 1013.2 |
| 20260503010048 | 58 | 162 | 0.0 | 0.0 | 0.00 | 0.38 | 0.08 | 98 | 1013.2 |
| 20260503005525 | 58 | 162 | 0.0 | 0.0 | 0.00 | 0.38 | 0.08 | 98 | 1013.2 |
| 20260503005051 | 57 | 162 | 0.0 | 0.0 | 0.00 | 0.38 | 0.08 | 98 | 1013.3 |
| 20260503004532 | 57 | 163 | 0.0 | 1.7 | 0.00 | 0.38 | 0.08 | 98 | 1013.4 |
| 20260503004032 | 58 | 162 | 0.0 | 1.7 | 0.00 | 0.38 | 0.08 | 98 | 1013.4 |
| 20260503003524 | 58 | 159 | 0.9 | 2.6 | 0.00 | 0.38 | 0.08 | 98 | 1013.4 |
| 20260503003032 | 58 | 156 | 0.0 | 1.7 | 0.00 | 0.38 | 0.08 | 98 | 1013.5 |
| 20260503002528 | 58 | 104 | 0.0 | 0.0 | 0.00 | 0.38 | 0.08 | 98 | 1013.5 |
| 20260503002037 | 58 | 104 | 0.0 | 0.0 | 0.00 | 0.38 | 0.08 | 98 | 1013.5 |
| 20260503001536 | 58 | 104 | 0.0 | 0.0 | 0.00 | 0.38 | 0.08 | 98 | 1013.5 |
| 20260503001032 | 58 | 102 | 0.0 | 1.7 | 0.00 | 0.38 | 0.08 | 98 | 1013.4 |
| 20260503000544 | 58 | 106 | 0.0 | 0.0 | 0.00 | 0.38 | 0.08 | 98 | 1013.4 |
| 20260503000032 | 58 | 106 | 0.0 | 0.0 | 0.00 | 0.38 | 0.08 | 98 | 1013.4 |
| 20260502235535 | 58 | 107 | 0.0 | 0.0 | 0.00 | 0.38 | 0.08 | 98 | 1013.4 |
| 20260502235032 | 58 | 104 | 0.0 | 0.0 | 0.00 | 0.38 | 0.08 | 98 | 1013.5 |
| 20260502234532 | 58 | 104 | 0.0 | 0.9 | 0.01 | 0.38 | 0.08 | 98 | 1013.6 |
| 20260502234034 | 58 | 111 | 0.0 | 1.7 | 0.01 | 0.38 | 0.08 | 98 | 1013.6 |
| 20260502233533 | 58 | 113 | 0.0 | 0.0 | 0.01 | 0.38 | 0.08 | 98 | 1013.7 |
| 20260502233032 | 58 | 112 | 0.0 | 0.0 | 0.03 | 0.38 | 0.08 | 98 | 1013.9 |
| 20260502232532 | 58 | 113 | 0.0 | 1.7 | 0.05 | 0.38 | 0.08 | 98 | 1014.0 |
| 20260502232025 | 58 | 107 | 0.0 | 1.7 | 0.05 | 0.38 | 0.08 | 98 | 1013.9 |
| 20260502231532 | 58 | 104 | 0.0 | 0.0 | 0.06 | 0.38 | 0.08 | 98 | 1013.9 |
| 20260502231034 | 58 | 103 | 0.0 | 0.0 | 0.08 | 0.38 | 0.08 | 98 | 1013.9 |
| 20260502230524 | 58 | 54 | 0.0 | 1.7 | 0.08 | 0.38 | 0.08 | 98 | 1013.9 |
| 20260502230021 | 58 | 156 | 0.0 | 1.7 | 0.08 | 0.38 | 0.08 | 98 | 1014.0 |
| 20260502225534 | 58 | 159 | 0.0 | 2.6 | 0.08 | 0.38 | 0.08 | 98 | 1014.1 |
| 20260502225047 | 58 | 151 | 0.9 | 3.5 | 0.08 | 0.38 | 0.08 | 98 | 1014.2 |
| 20260502224557 | 58 | 115 | 0.0 | 1.7 | 0.07 | 0.37 | 0.07 | 98 | 1014.1 |
| 20260502224032 | 58 | 169 | 1.7 | 3.5 | 0.07 | 0.37 | 0.07 | 98 | 1014.1 |
| 20260502223535 | 58 | 192 | 0.9 | 2.6 | 0.07 | 0.37 | 0.07 | 98 | 1013.9 |
| 20260502223032 | 58 | 118 | 0.0 | 0.0 | 0.05 | 0.35 | 0.05 | 98 | 1014.0 |
| 20260502222533 | 58 | 130 | 0.0 | 0.0 | 0.03 | 0.33 | 0.03 | 97 | 1014.6 |
| 20260502222030 | 58 | 144 | 0.0 | 0.0 | 0.03 | 0.33 | 0.03 | 97 | 1014.6 |
| 20260502221535 | 58 | 138 | 0.0 | 1.7 | 0.02 | 0.32 | 0.02 | 97 | 1014.5 |
| 20260502221032 | 58 | 132 | 0.0 | 1.7 | 0.00 | 0.30 | 0.00 | 97 | 1014.5 |
| 20260502220532 | 58 | 169 | 0.0 | 0.0 | 0.00 | 0.30 | 0.00 | 97 | 1014.5 |
| 20260502220035 | 58 | 115 | 0.0 | 0.0 | 0.01 | 0.30 | 0.00 | 97 | 1014.5 |
| 20260502215527 | 58 | 132 | 0.0 | 1.7 | 0.02 | 0.30 | 0.30 | 97 | 1014.4 |
| 20260502215034 | 58 | 110 | 0.0 | 0.0 | 0.03 | 0.30 | 0.30 | 97 | 1014.4 |
| 20260502214557 | 58 | 342 | 0.0 | 0.0 | 0.04 | 0.30 | 0.30 | 97 | 1014.5 |
| 20260502214036 | 58 | 54 | 0.0 | 0.0 | 0.05 | 0.30 | 0.30 | 97 | 1014.6 |
| 20260502213534 | 58 | 55 | 0.0 | 0.0 | 0.07 | 0.30 | 0.30 | 96 | 1014.6 |
| 20260502213033 | 58 | 31 | 0.0 | 1.7 | 0.13 | 0.30 | 0.30 | 96 | 1014.6 |
| 20260502212532 | 58 | 348 | 0.0 | 0.0 | 0.22 | 0.30 | 0.30 | 96 | 1014.5 |
| 20260502212032 | 58 | 344 | 1.7 | 3.5 | 0.25 | 0.30 | 0.30 | 96 | 1014.5 |
| 20260502211534 | 58 | 349 | 0.0 | 1.7 | 0.29 | 0.30 | 0.30 | 96 | 1014.6 |
| 20260502211022 | 58 | 344 | 0.9 | 2.6 | 0.30 | 0.30 | 0.30 | 96 | 1014.8 |
| 20260502210528 | 58 | 320 | 0.0 | 1.7 | 0.30 | 0.30 | 0.30 | 96 | 1015.0 |
| 20260502210034 | 58 | 268 | 0.0 | 2.6 | 0.29 | 0.29 | 0.29 | 96 | 1015.0 |
| 20260502205534 | 58 | 347 | 0.9 | 2.6 | 0.28 | 0.28 | 0.28 | 95 | 1014.8 |
| 20260502205033 | 58 | 355 | 1.7 | 3.5 | 0.27 | 0.27 | 0.27 | 95 | 1015.3 |
| 20260502204533 | 59 | 284 | 0.9 | 2.6 | 0.26 | 0.26 | 0.26 | 95 | 1015.8 |
| 20260502204032 | 59 | 289 | 0.0 | 1.7 | 0.25 | 0.25 | 0.25 | 94 | 1016.2 |
| 20260502203534 | 59 | 226 | 1.7 | 4.3 | 0.23 | 0.23 | 0.23 | 94 | 1016.4 |
| 20260502203032 | 60 | 219 | 0.9 | 4.3 | 0.17 | 0.17 | 0.17 | 92 | 1016.8 |
| 20260502202532 | 61 | 223 | 3.5 | 6.1 | 0.08 | 0.08 | 0.08 | 89 | 1016.7 |
| 20260502202034 | 63 | 220 | 3.5 | 7.0 | 0.05 | 0.05 | 0.05 | 83 | 1016.2 |
| 20260502201533 | 65 | 268 | 4.3 | 9.6 | 0.01 | 0.01 | 0.01 | 73 | 1015.9 |
| 20260502201045 | 65 | 244 | 2.6 | 5.2 | 0.00 | 0.00 | 0.00 | 67 | 1015.5 |
| 20260502200523 | 66 | 337 | 0.9 | 2.6 | 0.00 | 0.00 | 0.00 | 68 | 1014.7 |
| 20260502200027 | 66 | 358 | 1.7 | 4.3 | 0.00 | 0.00 | 0.00 | 67 | 1014.6 |
| 20260502195534 | 66 | 337 | 1.7 | 2.6 | 0.00 | 0.00 | 0.00 | 68 | 1014.6 |
| 20260502195034 | 66 | 351 | 2.6 | 3.5 | 0.00 | 0.00 | 0.00 | 68 | 1014.5 |
| 20260502194533 | 66 | 11 | 2.6 | 4.3 | 0.00 | 0.00 | 0.00 | 68 | 1014.4 |
| 20260502194033 | 66 | 344 | 1.7 | 4.3 | 0.00 | 0.00 | 0.00 | 68 | 1014.6 |
| 20260502193532 | 67 | 16 | 1.7 | 3.5 | 0.00 | 0.00 | 0.00 | 67 | 1014.6 |
| 20260502193027 | 67 | 355 | 1.7 | 3.5 | 0.00 | 0.00 | 0.00 | 65 | 1014.7 |
| 20260502192532 | 68 | 349 | 2.6 | 4.3 | 0.00 | 0.00 | 0.00 | 63 | 1014.8 |
| 20260502192032 | 68 | 360 | 1.7 | 2.6 | 0.00 | 0.00 | 0.00 | 62 | 1014.8 |
| 20260502191532 | 68 | 356 | 1.7 | 3.5 | 0.00 | 0.00 | 0.00 | 61 | 1014.9 |
| 20260502191032 | 69 | 336 | 0.9 | 3.5 | 0.00 | 0.00 | 0.00 | 60 | 1014.8 |
| 20260502190532 | 69 | 353 | 1.7 | 2.6 | 0.00 | 0.00 | 0.00 | 61 | 1014.8 |
| 20260502190032 | 69 | 27 | 0.9 | 2.6 | 0.00 | 0.00 | 0.00 | 60 | 1014.8 |
| 20260502185532 | 69 | 350 | 1.7 | 3.5 | 0.00 | 0.00 | 0.00 | 59 | 1014.8 |
| 20260502185032 | 69 | 351 | 2.6 | 5.2 | 0.00 | 0.00 | 0.00 | 59 | 1014.9 |
| 20260502184532 | 69 | 4 | 1.7 | 4.3 | 0.00 | 0.00 | 0.00 | 59 | 1014.9 |
| 20260502184032 | 70 | 16 | 2.6 | 3.5 | 0.00 | 0.00 | 0.00 | 59 | 1014.9 |
| 20260502183523 | 70 | 358 | 1.7 | 3.5 | 0.00 | 0.00 | 0.00 | 58 | 1014.9 |
| 20260502183045 | 70 | 347 | 2.6 | 3.5 | 0.00 | 0.00 | 0.00 | 58 | 1014.9 |
| 20260502182532 | 70 | 354 | 2.6 | 4.3 | 0.00 | 0.00 | 0.00 | 58 | 1014.8 |
| 20260502182027 | 71 | 358 | 2.6 | 4.3 | 0.00 | 0.00 | 0.00 | 57 | 1014.8 |
| 20260502181535 | 71 | 332 | 1.7 | 3.5 | 0.00 | 0.00 | 0.00 | 57 | 1014.9 |
| 20260502181032 | 71 | 5 | 1.7 | 4.3 | 0.00 | 0.00 | 0.00 | 58 | 1014.9 |
| 20260502180532 | 72 | 1 | 2.6 | 5.2 | 0.00 | 0.00 | 0.00 | 57 | 1014.8 |
| 20260502164024 | 73 | 359 | 2.6 | 5.2 | 0.00 | 0.00 | 0.00 | 56 | 1015.5 |
| 20260502163532 | 73 | 347 | 2.6 | 3.5 | 0.00 | 0.00 | 0.00 | 57 | 1015.5 |
| 20260502163032 | 73 | 350 | 2.6 | 5.2 | 0.00 | 0.00 | 0.00 | 57 | 1015.6 |
| 20260502162523 | 74 | 314 | 1.7 | 3.5 | 0.00 | 0.00 | 0.00 | 57 | 1015.7 |
| 20260502162027 | 74 | 323 | 2.6 | 3.5 | 0.00 | 0.00 | 0.00 | 56 | 1015.8 |
| 20260502161532 | 74 | 360 | 1.7 | 3.5 | 0.00 | 0.00 | 0.00 | 57 | 1015.9 |
| 20260502161032 | 74 | 322 | 1.7 | 3.5 | 0.00 | 0.00 | 0.00 | 56 | 1015.9 |
| 20260502160532 | 74 | 354 | 1.7 | 3.5 | 0.00 | 0.00 | 0.00 | 57 | 1015.9 |
| 20260502152031 | 74 | 360 | 1.7 | 4.3 | 0.00 | 0.00 | 0.00 | 56 | 1016.4 |
| 20260502151531 | 73 | 347 | 1.7 | 3.5 | 0.00 | 0.00 | 0.00 | 57 | 1016.5 |
| 20260502151031 | 74 | 37 | 1.7 | 2.6 | 0.00 | 0.00 | 0.00 | 57 | 1016.5 |
| 20260502150527 | 74 | 344 | 2.6 | 3.5 | 0.00 | 0.00 | 0.00 | 57 | 1016.7 |
| 20260502130531 | 77 | 185 | 1.7 | 3.5 | 0.00 | 0.00 | 0.00 | 53 | 1018.2 |
| 20260502123531 | 74 | 240 | 1.7 | 3.5 | 0.00 | 0.00 | 0.00 | 57 | 1018.4 |
| 20260502123025 | 74 | 306 | 1.7 | 3.5 | 0.00 | 0.00 | 0.00 | 59 | 1018.5 |
| 20260502122534 | 73 | 251 | 0.9 | 1.7 | 0.00 | 0.00 | 0.00 | 59 | 1018.5 |
| 20260502122031 | 73 | 251 | 1.7 | 3.5 | 0.00 | 0.00 | 0.00 | 60 | 1018.6 |
| 20260502121521 | 73 | 209 | 0.9 | 2.6 | 0.00 | 0.00 | 0.00 | 61 | 1018.7 |
| 20260502121033 | 73 | 206 | 1.7 | 4.3 | 0.00 | 0.00 | 0.00 | 61 | 1018.7 |
| 20260502120531 | 72 | 220 | 1.7 | 4.3 | 0.00 | 0.00 | 0.00 | 61 | 1018.8 |
| 20260502115527 | 72 | 271 | 1.7 | 3.5 | 0.00 | 0.00 | 0.00 | 62 | 1018.9 |
| 20260502115031 | 72 | 278 | 1.7 | 3.5 | 0.00 | 0.00 | 0.00 | 62 | 1019.0 |
| 20260502114532 | 72 | 232 | 2.6 | 4.3 | 0.00 | 0.00 | 0.00 | 62 | 1019.1 |
| 20260502114034 | 72 | 219 | 2.6 | 4.3 | 0.00 | 0.00 | 0.00 | 61 | 1019.2 |
| 20260502113527 | 73 | 238 | 2.6 | 5.2 | 0.00 | 0.00 | 0.00 | 61 | 1019.2 |
| 20260502113031 | 73 | 195 | 2.6 | 6.1 | 0.00 | 0.00 | 0.00 | 58 | 1019.2 |
| 20260502112531 | 73 | 226 | 1.7 | 5.2 | 0.00 | 0.00 | 0.00 | 60 | 1019.2 |
| 20260502112031 | 72 | 249 | 1.7 | 3.5 | 0.00 | 0.00 | 0.00 | 61 | 1019.3 |
| 20260502111521 | 72 | 230 | 1.7 | 3.5 | 0.00 | 0.00 | 0.00 | 60 | 1019.3 |
| 20260502111029 | 72 | 200 | 2.6 | 5.2 | 0.00 | 0.00 | 0.00 | 61 | 1019.3 |
| 20260502110531 | 74 | 188 | 2.6 | 5.2 | 0.00 | 0.00 | 0.00 | 58 | 1019.3 |
| 20260502110033 | 74 | 235 | 1.7 | 5.2 | 0.00 | 0.00 | 0.00 | 59 | 1019.3 |
| 20260502105533 | 73 | 253 | 0.9 | 3.5 | 0.00 | 0.00 | 0.00 | 60 | 1019.3 |
| 20260502105031 | 73 | 208 | 1.7 | 4.3 | 0.00 | 0.00 | 0.00 | 60 | 1019.4 |
| 20260502104532 | 73 | 195 | 1.7 | 2.6 | 0.00 | 0.00 | 0.00 | 60 | 1019.4 |
| 20260502104022 | 73 | 199 | 2.6 | 4.3 | 0.00 | 0.00 | 0.00 | 60 | 1019.4 |
| 20260502103523 | 72 | 227 | 1.7 | 3.5 | 0.00 | 0.00 | 0.00 | 61 | 1019.5 |
| 20260502103032 | 71 | 226 | 1.7 | 4.3 | 0.00 | 0.00 | 0.00 | 62 | 1019.6 |
| 20260502102534 | 71 | 232 | 1.7 | 3.5 | 0.00 | 0.00 | 0.00 | 63 | 1019.6 |
| 20260502102027 | 70 | 245 | 1.7 | 4.3 | 0.00 | 0.00 | 0.00 | 66 | 1019.7 |
| 20260502101533 | 70 | 227 | 1.7 | 3.5 | 0.00 | 0.00 | 0.00 | 66 | 1019.7 |
| 20260502101033 | 70 | 211 | 2.6 | 5.2 | 0.00 | 0.00 | 0.00 | 66 | 1019.6 |
| 20260502100531 | 70 | 214 | 1.7 | 3.5 | 0.00 | 0.00 | 0.00 | 65 | 1019.7 |
| 20260502091534 | 69 | 164 | 2.6 | 4.3 | 0.00 | 0.00 | 0.00 | 66 | 1020.0 |
| 20260502091034 | 68 | 186 | 1.7 | 3.5 | 0.00 | 0.00 | 0.00 | 70 | 1020.0 |
| 20260502090523 | 68 | 186 | 2.6 | 4.3 | 0.00 | 0.00 | 0.00 | 70 | 1020.1 |
| 20260502071533 | 61 | 194 | 0.9 | 2.6 | 0.00 | 0.00 | 0.00 | 69 | 1019.9 |
| 20260502071032 | 60 | 175 | 0.9 | 2.6 | 0.00 | 0.00 | 0.00 | 70 | 1019.9 |
| 20260502070531 | 60 | 199 | 1.7 | 2.6 | 0.00 | 0.00 | 0.00 | 71 | 1019.9 |
| 20260502070031 | 60 | 222 | 0.9 | 1.7 | 0.00 | 0.00 | 0.00 | 71 | 1019.8 |
| 20260502065533 | 59 | 222 | 0.9 | 1.7 | 0.00 | 0.00 | 0.00 | 72 | 1019.8 |
| 20260502065027 | 59 | 222 | 0.9 | 1.7 | 0.00 | 0.00 | 0.00 | 74 | 1019.8 |
| 20260502064533 | 59 | 222 | 0.0 | 0.0 | 0.00 | 0.00 | 0.00 | 75 | 1019.8 |
| 20260502064033 | 59 | 222 | 0.0 | 0.0 | 0.00 | 0.00 | 0.00 | 74 | 1019.7 |
| 20260502063545 | 59 | 222 | 0.0 | 0.0 | 0.00 | 0.00 | 0.00 | 73 | 1019.8 |
| 20260502063031 | 58 | 222 | 0.0 | 0.0 | 0.00 | 0.00 | 0.00 | 72 | 1019.7 |
| 20260502062531 | 58 | 222 | 0.0 | 0.0 | 0.00 | 0.00 | 0.00 | 71 | 1019.8 |
| 20260502062031 | 58 | 222 | 0.0 | 0.0 | 0.00 | 0.00 | 0.00 | 70 | 1019.8 |
| 20260502061536 | 57 | 222 | 0.0 | 0.0 | 0.00 | 0.00 | 0.00 | 70 | 1019.8 |
| 20260502061033 | 57 | 222 | 0.0 | 0.0 | 0.00 | 0.00 | 0.00 | 70 | 1019.8 |
| 20260502060533 | 57 | 222 | 0.0 | 0.0 | 0.00 | 0.00 | 0.00 | 69 | 1019.8 |
| 20260502060045 | 57 | 222 | 0.0 | 0.0 | 0.00 | 0.00 | 0.00 | 70 | 1019.8 |
| 20260502055521 | 57 | 222 | 0.0 | 0.0 | 0.00 | 0.00 | 0.00 | 69 | 1019.9 |
| 20260502055031 | 57 | 222 | 0.0 | 0.0 | 0.00 | 0.00 | 0.00 | 68 | 1019.9 |
| 20260502054531 | 56 | 222 | 0.0 | 1.7 | 0.00 | 0.00 | 0.00 | 67 | 1020.0 |
| 20260502054032 | 56 | 222 | 0.0 | 0.0 | 0.00 | 0.00 | 0.00 | 67 | 1020.0 |